EDT,Max TemperatureF,Mean TemperatureF,Min TemperatureF,Max Dew PointF,MeanDew PointF,Min DewpointF,Max Humidity, Mean Humidity, Min Humidity, Max Sea Level PressureIn, Mean Sea Level PressureIn, Min Sea Level PressureIn, Max VisibilityMiles, Mean VisibilityMiles, Min VisibilityMiles, Max Wind SpeedMPH, Mean Wind SpeedMPH, Max Gust SpeedMPH,PrecipitationIn, CloudCover, Events, WindDirDegrees
2014-4-1,44,38,33,32,30,28,87,75,58,30.09,29.97,29.90,10,9,2,32,20,45,0.00,6,Rain-Snow,4
2014-4-2,50,39,28,35,29,21,92,69,36,30.12,30.08,30.04,10,10,10,13,4,,0.00,0,,207
2014-4-3,51,39,28,37,29,24,100,71,38,30.10,30.06,30.04,10,8,0,20,6,28,0.00,0,Fog,29
2014-4-4,50,40,33,38,33,28,93,74,50,30.14,30.04,29.84,10,9,4,13,5,22,0.03,5,Rain,94
2014-4-5,57,48,39,48,41,23,97,79,45,29.92,29.71,29.62,10,7,1,15,8,21,0.09,6,Rain,267
2014-4-6,48,41,34,34,27,21,79,56,41,30.19,30.08,29.94,10,10,10,16,9,24,0.00,0,,254
2014-4-7,52,42,33,46,35,29,93,72,41,30.25,30.12,29.90,10,8,2,15,5,25,0.14,3,Rain,150
2014-4-8,55,50,45,54,48,37,100,95,66,29.88,29.50,29.39,10,3,0,20,13,31,0.50,6,Fog-Rain,197
2014-4-9,57,49,41,38,33,25,71,57,42,29.94,29.65,29.52,10,10,10,13,8,23,0.00,2,,335
2014-4-10,51,39,28,41,29,19,85,59,33,30.19,30.11,29.97,10,10,10,20,10,32,0.00,0,,215
2014-4-11,61,54,46,44,43,40,83,70,53,30.06,30.01,29.96,10,10,8,25,14,33,0.00,2,,214
2014-4-12,64,54,46,45,41,34,89,67,35,30.24,30.11,29.96,10,10,8,14,7,21,0.00,3,,261
2014-4-13,60,51,43,50,44,35,93,77,42,30.27,30.20,30.09,10,9,0,17,9,24,0.00,2,Fog,193
2014-4-14,64,58,52,53,51,50,97,86,65,30.09,30.05,29.98,10,10,5,22,15,34,0.00,3,,208
2014-4-15,60,56,52,55,52,50,97,89,78,29.97,29.82,29.63,9,6,2,26,15,40,0.21,8,Rain,198
2014-4-16,48,44,34,54,31,18,97,73,40,30.56,30.05,29.65,10,7,1,25,15,38,0.81,5,Rain-Snow,350
2014-4-17,43,38,32,27,25,21,75,60,52,30.74,30.68,30.58,10,10,10,18,13,28,0.00,3,,39
2014-4-18,45,37,30,37,33,25,89,79,67,30.59,30.43,30.26,10,10,7,13,6,23,0.00,6,,29
2014-4-19,61,46,33,38,34,31,92,65,37,30.37,30.22,30.16,10,10,9,16,5,25,0.00,1,,337
2014-4-20,51,42,30,35,32,24,89,66,39,30.49,30.43,30.34,10,10,10,16,7,26,0.00,0,,37
2014-4-21,55,42,30,45,40,28,89,77,62,30.32,30.10,29.88,10,10,10,12,5,,0.00,0,,187
2014-4-22,59,50,44,50,46,41,93,78,65,29.85,29.65,29.51,10,10,10,18,9,22,0.03,2,Rain,202
2014-4-23,57,52,46,53,46,35,100,88,59,29.54,29.43,29.35,10,6,0,17,7,31,0.75,7,Fog-Rain-Thunderstorm,273
2014-4-24,55,50,44,34,29,21,58,47,36,29.87,29.66,29.53,10,10,10,23,17,37,0.00,2,,330
2014-4-25,57,50,44,37,32,27,66,53,34,29.99,29.92,29.87,10,10,10,15,10,22,0.00,1,,266
2014-4-26,48,42,35,41,36,32,89,69,52,29.87,29.79,29.73,10,10,6,14,7,22,0.05,6,Rain,93
2014-4-27,48,40,34,41,38,31,93,84,71,30.00,29.92,29.84,10,10,3,14,3,,0.03,6,Rain,347
2014-4-28,53,48,43,41,38,37,86,71,59,30.17,30.03,29.95,10,10,10,22,13,30,0.00,4,,358
2014-4-29,48,45,42,38,36,33,80,72,56,30.50,30.38,30.18,10,10,8,20,14,29,0.00,7,,57
2014-4-30,46,44,41,41,38,34,93,81,73,30.50,30.41,30.29,10,8,4,13,8,23,0.11,8,Rain,89